DECAYED

COSMOS 2251 DEB, 37547 (Decayed)

Orbit data source: Space-Track

COSMOS 2251 DEB, 37547 was space debris in LEO originally from a launch on Wed, 16 Jun 1993 UTC launched from the Plesetsk Missile And Space Complex (PKMTR). The debris from Iridium 33, an American commercial communications satellite, has been tracked extensively since its accidental collision with the defunct Russian satellite Cosmos 2251 in 2009. This event, occurring at high speed in low Earth orbit (LEO), generated thousands of pieces of space debris, significantly increasing the risk of further collisions. The Iridium 33 debris cloud has impacted space traffic management and orbital debris mitigation strategies, making it a subject of ongoing study in space situational awareness.

Not visible in the next 10 days
Identifier
37547, 1993-036BPC
Orbit
Decayed
Country
Flag of CISCIS
Related business
Manufacturer
Unknown
Mission
Decayed spacecraft
Bus & Motor
Unknown
Mass
Unknown
Launch date (UTC)
1993-06-16 (33 years ago)
Launch vehicle
Unknown
Launch site
Plesetsk Missile And Space Complex (PKMTR)
Object type
Payload
Rocket body
Debris
Shape & HBR
Unknown shape, 0.1 m
Radar Cross Section
Small (<0.1 m²)

Expand to show TLE details & history
Last TLE update: 2 years ago

TLE from 2 years ago
0 COSMOS 2251 DEB
1 37547U 93036BPC 25014.24492053  .02960262  64565-2  11820-1 0  9996
2 37547  73.9838 107.9955 0028405 344.8139  15.2237 15.87396778616298
Epoch: 2025-01-14T05:52Z
TLE epoch observation values (Epoch: 2025-01-14T05:52:41.133Z)
Latitude
-0.00003°
Longitude
-94.13029°
Altitude
294.043 km
Speed
7.742 km/s
True Right ascension
07h 11m 58s
True Declination
0° 00' 00"
Sunlit
Object was in full shadow at epoch
Visualization orbit readout
Latitude
Unknown
Longitude
Unknown
Altitude
Unknown
Speed
Unknown
Apparent Right ascension
Unknown
Apparent Declination
Unknown
Sunlit
N/A
Visualization observer readout
Local Sidereal Time
10:20:51
Azimuth
Unknown
Elevation
Unknown
Doppler factor
Unknown
Orbital elements
Apogee altitude
326.038 km
Perigee altitude
288.059 km
Semi-major axis
6,685.186 km
Eccentricity
0.00284
Inclination
73.9838°
RAAN
107.9955°
Arg. of periapsis
344.8139°
True anomaly
15.30947°
Mean anomaly
15.2237°
Eccentric anomaly
15.26655°
Mean motion
3.97075 °/min
Orbital period
90.66 mins
BSTAR
0.01182
Loading maneuver chart data...
Computing Atmospheric mass density...

Documentation

Showing up to 5 results
|